User: anonymous   Login
Location: Oshawa
(43.9000°N, 78.8670°W)
Time: 01:28:23
(UTC-04:00)
Language:

Cosmos 1500 - Orbit

View from above orbital plane
View from above orbital plane
View from above satellite
View from above satellite

Ground track
Ground track

The orbit data is extracted from the following two-line orbital elements,

1 14372U 83099A   16126.76853936  .00001329  00000-0  66302-4 0  9995
2 14372  82.5181  25.9168 0017560  63.9350 351.2083 15.16532117776037
Epoch (UTC): 05 May 2016 18:26:41
Eccentricity: 0.0017560
inclination: 82.5181°
perigee height: 504 km
apogee height: 528 km
right ascension of ascending node: 25.9168°
argument of perigee: 63.9350°
revolutions per day: 15.16532117
mean anomaly at epoch: 351.2083°
orbit number at epoch: 77603

The dashed part of the orbit path shows where the satellite is in the earth's shadow,  

DLR